map of ZNZ home
Great Circle Mapper logo
ZNZ - Airport
Location
City:  Zanzibar Island, Tanzania
ICAO / IATA:HTZA / ZNZ

Details
Type:Airport (Aerodrome, Airfield)
Use:Public/Civil, International (customs port of entry)
Latitude:613'19"S (-6.222024)
Longitude:3913'30"E (39.224886)
Datum:WGS 1984
Elevation:54 ft (16 m)
Runways:1
Longest:8077 × 148 ft (2462 × 45 m), paved

Time
Time Zone:UTC+3
Local Time:

Weather
METAR:HTZA 011100Z 17012KT 9999 BKN018 FEW020CB 29/25 Q1010 NOSIG
TAF:HTZA 312200Z 0100/0124 00000KT 9999 FEW016 PROB30
TEMPO 0102/0109 21010KT 5000 SHRA BKN016 BKN080
BECMG 0110/0112 13015KT
BECMG 0116/0118 00000KT SCT016

Related Locations
Nearby:
Farthest:NHV: 11397 mi / 18342 km
Nuku Hiva, Marquesas Islands, PF

Find:

   beyond  
but within

Other Information
Maps:
NOTAMs:
Links:
Sources:

  
flag of Tanzania   

Sectional Chart

Flight Planning
at skyvector.com

Satellite Image

Google Maps Satellite View

 

Copyright © 2004-2014 Karl L. Swartz. All rights reserved.
The Great Circle Mapper name and logo are trademarks of the Great Circle Mapper.
All other trademarks mentioned herein belong to their respective owners.
Please see credits for attibutions and further copyright information.

  Follow gcmap on Facebook Follow gcmap on Twitter

hCard Microformat

Geo Microformat